Simultaneous Nadir Overpasses (SNOs) Predictions

Prediction of SNOs between AQUA and METOP-B Satellite Orbit:

Table of predicted SNOs for the next 14.0 days since TLE Epoch: 1/30/2021
Index Date (AQUA) Time (AQUA) Lat,Lon (AQUA) SZA (AQUA ) Date (METOP-B) Time (METOP-B) Lat,Lon (METOP-B) SZA (METOP-B ) Distance(km) Time Diff (sec)
1 01/30/2021 12:50:03 -73.77, 161.79 88.62 01/30/2021 12:49:37 -73.79, 161.76 88.60 2.39 26
2 01/30/2021 13:39:32 73.87, -30.80 91.48 01/30/2021 13:40:15 73.87, -30.73 91.46 2.13 43
3 02/02/2021 08:24:20 -73.81,-131.86 89.38 02/02/2021 08:23:59 -73.78,-131.86 89.40 3.12 21
4 02/02/2021 09:13:48 73.86, 35.66 90.67 02/02/2021 09:14:37 73.85, 35.64 90.65 1.89 49
5 02/05/2021 03:08:57 73.18, 128.26 89.12 02/05/2021 03:07:50 73.15, 125.79 89.22 79.72 67
6 02/05/2021 03:58:35 -73.80, -65.41 90.22 02/05/2021 03:58:19 -73.82, -65.36 90.21 2.17 16
7 02/05/2021 04:48:03 73.86, 102.11 89.83 02/05/2021 04:48:57 73.88, 102.12 89.84 2.12 54
8 02/07/2021 22:43:17 73.40,-165.74 88.48 02/07/2021 22:42:08 73.33,-167.40 88.50 53.56 69
9 02/07/2021 23:32:51 -73.80, 1.03 91.10 02/07/2021 23:32:41 -73.80, 1.01 91.09 0.75 10
10 02/08/2021 00:22:19 73.86, 168.54 88.96 02/08/2021 00:23:19 73.86, 168.48 88.95 2.02 60
11 02/10/2021 18:17:37 73.61, -99.76 87.81 02/10/2021 18:16:25 73.56,-100.48 87.80 23.45 72
12 02/10/2021 19:07:07 -73.81, 67.46 92.00 02/10/2021 19:07:02 -73.83, 67.49 91.97 2.69 5
13 02/10/2021 19:56:35 73.87,-125.04 88.07 02/10/2021 19:57:40 73.88,-125.05 88.07 1.32 65



Historial Predications of SNOs between AQUA and METOP-B
